Regional Weather Roundup
Issued by NWS

Home | Current Version | Previous Version | Graphics & Text | Print | Product List | Glossary On
Versions: 1 2 3 4 5 6 7 8 9 10 11 12 13 14 15 16 17 18 19 20 21 22 23 24 25 26 27 28 29 30 31 32 33 34 35 36 37 38 39 40 41 42 43 44 45 46 47 48 49 50
811
ASUS43 KLOT 280804
RWRIL

ILLINOIS REGIONAL WEATHER ROUNDUP
NATIONAL WEATHER SERVICE CHICAGO/ROMEOVILLE IL
300 AM CDT SUN MAY 28 2017

NOTE: "FAIR" INDICATES FEW OR NO CLOUDS BELOW 12,000 FEET WITH NO
SIGNIFICANT WEATHER AND/OR OBSTRUCTIONS TO VISIBILITY.

* THESE STATIONS ARE NOT UNDER NWS QUALITY CONTROL. THEY ALSO MAY NOT
  REPORT WEATHER SUCH AS PRECIPITATION OR FOG.

ILZ001-002-007-009-015-016-024-280900-
NORTHWEST ILLINOIS

CITY           SKY/WX    TMP DP  RH WIND       PRES   REMARKS
MOLINE         FOG       61  58  90 W3        29.78S VSB 1
STERLING*      CLOUDY    61  60  97 CALM      29.79S FOG
SAVANNA*       CLOUDY    62  60  94 E3        29.78F
$$

ILZ003-004-008-010-011-017-018-280900-
NORTH CENTRAL ILLINOIS

CITY           SKY/WX    TMP DP  RH WIND       PRES   REMARKS
ROCKFORD       MOCLDY    62  58  86 CALM      29.80S
FREEPORT*      MOCLDY    57  56  96 CALM      29.80F
ROCHELLE*      CLOUDY    60  57  92 CALM      29.80R
DE KALB*       CLOUDY    60  56  87 SE5       29.80R FOG
PERU*          CLOUDY    63  61  94 CALM      29.79S
$$

ILZ005-006-012>014-019>023-280900-
NORTHEAST ILLINOIS

CITY           SKY/WX    TMP DP  RH WIND       PRES   REMARKS
CHICAGO-OHARE  CLOUDY    60  52  74 CALM      29.78F
CHICAGO-MIDWAY CLOUDY    60  54  80 CALM      29.78F
AURORA         CLOUDY    61  56  83 CALM      29.79F
LANSING*       CLOUDY    57  56  97 CALM      29.78F
JOLIET*        PTCLDY    59  58  96 CALM      29.78S FOG
WAUKEGAN       CLOUDY    58  52  80 SE5       29.79F
DUPAGE AIRPORT CLOUDY    59  57  93 CALM      29.78F
KANKAKEE*      PTCLDY    60  59  97 CALM      29.78F FOG
WHEELING       CLOUDY    58  54  86 CALM      29.80F
MORRIS*        CLOUDY    60  58  92 CALM      29.77R FOG
ROMEOVILLE*    CLOUDY    57  57  99 CALM      29.78F
NORTHERLY ISL    N/A     57  52  83 NE1         N/A
$$

LMZ740>746-280900-
SOUTHERN LAKE MICHIGAN

STATION/POSITION SKY/WX   TEMP    WIND        PRES    VSBY  WAVE
                          AIR SEA DIR/SP/G                  HT/PER
                          (F)     (DEG/KT/KT) (MB)    (MI)  (FT/S)
SOUTHERN BUOY              52 49  300/  4/  6 1009.9          0
WILMETTE HARBOR            54 55                N/A           0
HARRISON CRIB              58        CALM       N/A
BURNHAM HARBOR             57      CALM  /  3   N/A
CALUMET HARBOR             56      20/  2/  2 1008.2F
BURNS HARBOR               58        CALM     1009.1F
MICHIGAN CITY              62     100/  5/  6   N/A
MICHIGAN CITY 6N           58 56  100/  4/  6   N/A           0
ST. JOSEPH                 61 59  150/  4/  6 1008.9F         0
$$

ILZ025>027-034>036-040-047-049-050-058-095>099-280900-
WEST-CENTRAL ILLINOIS

CITY           SKY/WX    TMP DP  RH WIND       PRES   REMARKS
QUINCY         MOCLDY    64  63  96 NW7       29.75F FOG
GALESBURG*     CLOUDY    60  59  97 NW3       29.77S
MACOMB*        CLOUDY    61  60  97 NW5       29.79S
JACKSONVILLE*  MOCLDY    61  60  98 CALM      29.72F FOG
PITTSFIELD*    MOCLDY    64  62  91 W5        29.75F
$$

ILZ028>032-037-038-041>044-048-051>054-059>061-280900-
CENTRAL ILLINOIS

CITY           SKY/WX    TMP DP  RH WIND       PRES   REMARKS
PONTIAC        CLOUDY    64  63  98 CALM      29.78S
BLOOMINGTON    MOCLDY    63  60  90 E5        29.77F
DECATUR        CLOUDY    63  62  97 NE3       29.75F
PEORIA         CLOUDY    64  62  93 CALM      29.77S
LACON*         CLOUDY    62  62 100 CALM      29.76F FOG
LINCOLN*       CLOUDY    64  63  97 CALM      29.75F
SPRINGFIELD    CLOUDY    63  61  93 E6        29.74F
TAYLORVILLE    CLOUDY    61  60  97 CALM      29.74F
$$

ILZ033-039-045-046-055>057-062-063-280900-
EAST-CENTRAL ILLINOIS

CITY           SKY/WX    TMP DP  RH WIND       PRES   REMARKS
CHAMPAIGN      CLOUDY    64  61  90 NE7       29.76F
RANTOUL*       MOCLDY    64  63  96 NE5       29.77S
MATTOON        CLOUDY    66  66 100 SE3       29.74S
PARIS*         MOCLDY    64  63  98 CALM      29.76S
$$

ILZ079-100>102-280900-
SOUTHWEST ILLINOIS

CITY           SKY/WX    TMP DP  RH WIND       PRES   REMARKS
ALTON          CLOUDY    62  60  96 CALM      29.74F
BELLEVILLE     CLOUDY    63  61  93 CALM      29.76F
CAHOKIA*       CLOUDY    64  60  87 SW5       29.75F
SPARTA*        CLOUDY    63  61  94 CALM      29.78F
$$

ILZ064>066-069>071-074>076-080>082-084>086-088>090-092>094-280900-
SOUTH-CENTRAL ILLINOIS

CITY           SKY/WX    TMP DP  RH WIND       PRES   REMARKS
CARBONDALE     CLOUDY    64  62  93 SW5       29.78F
CAIRO*         CLOUDY    64  62  94 N5        29.80R
EFFINGHAM*     CLOUDY    62  62 100 CALM      29.76F
MARION         CLOUDY    66  64  94 S3        29.80F
MT. VERNON       N/A     63  61  93 SW7       29.78S
CENTRALIA*     CLOUDY    64  62  96 S7        29.76F
SALEM*         CLOUDY    65  61  87 S7        29.75F
$$

ILZ067-068-072-073-078-083-087-091-280900-
SOUTHEAST ILLINOIS

CITY           SKY/WX    TMP DP  RH WIND       PRES   REMARKS
LAWRENCEVILLE  CLOUDY    67  61  81 S13       29.76R
FLORA*         MOCLDY    65  61  87 SW6       29.75F
FAIRFIELD*     CLOUDY    65  61  86 S5        29.76F
HARRISBURG*    CLOUDY    65  62  90 SW3       29.80F
ROBINSON*      CLOUDY    66  61  85 SW6       29.77R
CARMI*         CLOUDY    64  62  90 S7        29.79R
$$

ABBREVIATIONS USED IN REMARKS
   TC - TEMPERATURE IN CELSIUS
  WCI - WIND CHILL INDEX
   HX - HEAT INDEX
  VSB - VISIBILITY
$$





USA.gov is the U.S. government's official web portal to all federal, state and local government web resources and services.